Location: Canazei
(46.4667°N, 11.7667°E)
Time: 02:05:00
(UTC+00:00)

Envisat - Pass Details

Date: 02 October 2021
Orbit: 764 x 766 km, 98.2° (Epoch: 23 October)

Event Time Altitude Azimuth Distance (km) Brightness Sun altitude
Rises 04:35:30 0° 12° (NNE) 3,242 6.4 -7.3°
Reaches altitude 10° 04:37:49 10° 12° (NNE) 2,312 5.7 -6.9°
Maximum altitude 04:42:55 83° 285° (WNW) 777 3.0 -6.0°
Drops below altitude 10° 04:47:59 10° 199° (SSW) 2,294 5.3 -5.1°
Sets 04:50:16 0° 198° (SSW) 3,216 6.0 -4.7°
